contact:dominique.lefevre@mio.osupytheas.fr, maurice.libes@osupytheas.fr, didier.mallarino@osupytheas.fr
Project:EMSO http://www.emso-fr.org/EMSO-France
Depth: 2436.0 m
Title:EMSO Ligure Ouest : Data MII capteur MICROCAT
DateTime_Computer,Latitude,Longitude,Temperature,Conductivity,Pressure,DateTime_Instrument
DateTime_Computer,Latitude,Longitude,degC,S m-1,dbar,DateTime_Instrument
2021-12-16T00:01:50Z,42.805,6.029,13.2997,4.60021,2470.273,2021-12-16T02:03:18Z
2021-12-16T00:04:53Z,42.805,6.029,13.2999,4.60022,2470.273,2021-12-16T02:06:21Z
2021-12-16T00:07:56Z,42.805,6.029,13.2998,4.60021,2470.297,2021-12-16T02:09:24Z
2021-12-16T00:10:59Z,42.805,6.029,13.2996,4.60022,2470.25,2021-12-16T02:12:28Z
2021-12-16T00:14:02Z,42.805,6.029,13.2998,4.60023,2470.297,2021-12-16T02:15:31Z
2021-12-16T00:17:05Z,42.805,6.029,13.2999,4.60022,2470.31,2021-12-16T02:18:34Z
2021-12-16T00:20:08Z,42.805,6.029,13.2997,4.60023,2470.297,2021-12-16T02:21:37Z
2021-12-16T00:23:12Z,42.805,6.029,13.2996,4.60023,2470.297,2021-12-16T02:24:40Z
2021-12-16T00:26:15Z,42.805,6.029,13.2999,4.60022,2470.297,2021-12-16T02:27:43Z
2021-12-16T00:29:18Z,42.805,6.029,13.3000,4.60021,2470.297,2021-12-16T02:30:46Z
2021-12-16T00:32:21Z,42.805,6.029,13.3000,4.60022,2470.297,2021-12-16T02:33:49Z
2021-12-16T00:35:24Z,42.805,6.029,13.2999,4.60022,2470.273,2021-12-16T02:36:53Z
2021-12-16T00:38:27Z,42.805,6.029,13.2996,4.60023,2470.297,2021-12-16T02:39:56Z
2021-12-16T00:41:30Z,42.805,6.029,13.2999,4.60023,2470.32,2021-12-16T02:42:59Z
2021-12-16T00:44:33Z,42.805,6.029,13.2998,4.60022,2470.273,2021-12-16T02:46:02Z
2021-12-16T00:47:37Z,42.805,6.029,13.3001,4.60022,2470.297,2021-12-16T02:49:05Z
2021-12-16T00:50:40Z,42.805,6.029,13.2997,4.60023,2470.297,2021-12-16T02:52:08Z
2021-12-16T00:53:43Z,42.805,6.029,13.3001,4.60023,2470.297,2021-12-16T02:55:11Z
2021-12-16T00:56:46Z,42.805,6.029,13.2997,4.60021,2470.334,2021-12-16T02:58:14Z
2021-12-16T00:59:49Z,42.805,6.029,13.2997,4.60022,2470.32,2021-12-16T03:01:18Z
2021-12-16T01:02:52Z,42.805,6.029,13.2998,4.60023,2470.32,2021-12-16T03:04:21Z
2021-12-16T01:05:55Z,42.805,6.029,13.3000,4.60023,2470.297,2021-12-16T03:07:24Z
2021-12-16T01:08:58Z,42.805,6.029,13.2998,4.60022,2470.297,2021-12-16T03:10:27Z
2021-12-16T01:12:02Z,42.805,6.029,13.3000,4.60023,2470.334,2021-12-16T03:13:30Z
2021-12-16T01:15:05Z,42.805,6.029,13.3002,4.60023,2470.297,2021-12-16T03:16:33Z
2021-12-16T01:18:08Z,42.805,6.029,13.2999,4.60023,2470.32,2021-12-16T03:19:36Z
2021-12-16T01:21:11Z,42.805,6.029,13.3002,4.60023,2470.32,2021-12-16T03:22:39Z
2021-12-16T01:24:14Z,42.805,6.029,13.3003,4.60023,2470.297,2021-12-16T03:25:43Z
2021-12-16T01:27:17Z,42.805,6.029,13.3000,4.60024,2470.297,2021-12-16T03:28:46Z
2021-12-16T01:30:20Z,42.805,6.029,13.2995,4.60023,2470.32,2021-12-16T03:31:49Z
2021-12-16T01:33:23Z,42.805,6.029,13.2997,4.60023,2470.343,2021-12-16T03:34:52Z
2021-12-16T01:36:27Z,42.805,6.029,13.2996,4.60023,2470.297,2021-12-16T03:37:55Z
2021-12-16T01:39:30Z,42.805,6.029,13.2999,4.60023,2470.31,2021-12-16T03:40:58Z
2021-12-16T01:42:33Z,42.805,6.029,13.3002,4.60024,2470.343,2021-12-16T03:44:01Z
2021-12-16T01:45:36Z,42.805,6.029,13.2998,4.60024,2470.334,2021-12-16T03:47:04Z
2021-12-16T01:48:39Z,42.805,6.029,13.3001,4.60023,2470.343,2021-12-16T03:50:08Z
2021-12-16T01:51:42Z,42.805,6.029,13.2997,4.60024,2470.357,2021-12-16T03:53:11Z
2021-12-16T01:54:45Z,42.805,6.029,13.3001,4.60024,2470.32,2021-12-16T03:56:14Z
2021-12-16T01:57:48Z,42.805,6.029,13.3000,4.60024,2470.32,2021-12-16T03:59:17Z
2021-12-16T02:00:52Z,42.805,6.029,13.3000,4.60024,2470.334,2021-12-16T04:02:20Z
2021-12-16T02:03:55Z,42.805,6.029,13.3000,4.60025,2470.32,2021-12-16T04:05:23Z
2021-12-16T02:06:58Z,42.805,6.029,13.2999,4.60025,2470.357,2021-12-16T04:08:26Z
2021-12-16T02:10:01Z,42.805,6.029,13.2997,4.60024,2470.334,2021-12-16T04:11:29Z
2021-12-16T02:13:04Z,42.805,6.029,13.2998,4.60025,2470.32,2021-12-16T04:14:33Z
2021-12-16T02:16:07Z,42.805,6.029,13.3003,4.60025,2470.32,2021-12-16T04:17:36Z
2021-12-16T02:19:10Z,42.805,6.029,13.3006,4.60025,2470.357,2021-12-16T04:20:39Z
2021-12-16T02:22:13Z,42.805,6.029,13.2999,4.60026,2470.343,2021-12-16T04:23:42Z
2021-12-16T02:25:16Z,42.805,6.029,13.3003,4.60025,2470.366,2021-12-16T04:26:45Z
2021-12-16T02:28:20Z,42.805,6.029,13.3002,4.60026,2470.343,2021-12-16T04:29:48Z
2021-12-16T02:31:23Z,42.805,6.029,13.3004,4.60026,2470.32,2021-12-16T04:32:51Z
2021-12-16T02:34:26Z,42.805,6.029,13.3001,4.60026,2470.343,2021-12-16T04:35:54Z
2021-12-16T02:37:29Z,42.805,6.029,13.2998,4.60026,2470.38,2021-12-16T04:38:57Z
2021-12-16T02:40:32Z,42.805,6.029,13.3006,4.60026,2470.366,2021-12-16T04:42:01Z
2021-12-16T02:43:35Z,42.805,6.029,13.3001,4.60025,2470.39,2021-12-16T04:45:04Z
2021-12-16T02:46:38Z,42.805,6.029,13.3006,4.60026,2470.38,2021-12-16T04:48:07Z
2021-12-16T02:49:41Z,42.805,6.029,13.3000,4.60026,2470.343,2021-12-16T04:51:10Z
2021-12-16T02:52:45Z,42.805,6.029,13.3004,4.60026,2470.366,2021-12-16T04:54:13Z
2021-12-16T02:55:48Z,42.805,6.029,13.3000,4.60026,2470.357,2021-12-16T04:57:16Z
2021-12-16T02:58:51Z,42.805,6.029,13.3004,4.60027,2470.404,2021-12-16T05:00:19Z
2021-12-16T03:01:54Z,42.805,6.029,13.3006,4.60026,2470.366,2021-12-16T05:03:22Z
2021-12-16T03:04:57Z,42.805,6.029,13.3002,4.60026,2470.343,2021-12-16T05:06:26Z
2021-12-16T03:08:00Z,42.805,6.029,13.3000,4.60026,2470.38,2021-12-16T05:09:29Z
2021-12-16T03:11:03Z,42.805,6.029,13.3000,4.60028,2470.366,2021-12-16T05:12:32Z
2021-12-16T03:14:06Z,42.805,6.029,13.3002,4.60029,2470.343,2021-12-16T05:15:35Z
2021-12-16T03:17:10Z,42.805,6.029,13.3004,4.60026,2470.38,2021-12-16T05:18:38Z
2021-12-16T03:20:13Z,42.805,6.029,13.3004,4.60027,2470.38,2021-12-16T05:21:41Z
2021-12-16T03:23:16Z,42.805,6.029,13.3002,4.60028,2470.404,2021-12-16T05:24:44Z
2021-12-16T03:26:19Z,42.805,6.029,13.3005,4.60028,2470.404,2021-12-16T05:27:47Z
2021-12-16T03:29:22Z,42.805,6.029,13.2998,4.60029,2470.39,2021-12-16T05:30:51Z
2021-12-16T03:32:25Z,42.805,6.029,13.3001,4.60029,2470.357,2021-12-16T05:33:54Z
2021-12-16T03:35:28Z,42.805,6.029,13.3000,4.60028,2470.39,2021-12-16T05:36:57Z
2021-12-16T03:38:31Z,42.805,6.029,13.2999,4.60029,2470.39,2021-12-16T05:40:00Z
2021-12-16T03:41:35Z,42.805,6.029,13.3004,4.60029,2470.39,2021-12-16T05:43:03Z
2021-12-16T03:44:38Z,42.805,6.029,13.3004,4.60029,2470.404,2021-12-16T05:46:06Z
2021-12-16T03:47:41Z,42.805,6.029,13.3000,4.60030,2470.413,2021-12-16T05:49:09Z
2021-12-16T03:50:44Z,42.805,6.029,13.3006,4.60029,2470.366,2021-12-16T05:52:12Z
2021-12-16T03:53:47Z,42.805,6.029,13.3004,4.60029,2470.39,2021-12-16T05:55:16Z
2021-12-16T03:56:50Z,42.805,6.029,13.3000,4.60029,2470.39,2021-12-16T05:58:19Z
2021-12-16T03:59:53Z,42.805,6.029,13.3004,4.60030,2470.427,2021-12-16T06:01:22Z
2021-12-16T04:02:56Z,42.805,6.029,13.3006,4.60030,2470.427,2021-12-16T06:04:25Z
2021-12-16T04:06:00Z,42.805,6.029,13.3005,4.60031,2470.427,2021-12-16T06:07:28Z
2021-12-16T04:09:03Z,42.805,6.029,13.3007,4.60031,2470.39,2021-12-16T06:10:31Z
2021-12-16T04:12:06Z,42.805,6.029,13.3006,4.60031,2470.427,2021-12-16T06:13:34Z
2021-12-16T04:15:09Z,42.805,6.029,13.3007,4.60031,2470.437,2021-12-16T06:16:37Z
2021-12-16T04:18:12Z,42.805,6.029,13.3005,4.60033,2470.404,2021-12-16T06:19:41Z
2021-12-16T04:21:15Z,42.805,6.029,13.3004,4.60031,2470.413,2021-12-16T06:22:44Z
2021-12-16T04:24:18Z,42.805,6.029,13.3007,4.60032,2470.45,2021-12-16T06:25:47Z
2021-12-16T04:27:21Z,42.805,6.029,13.3005,4.60032,2470.39,2021-12-16T06:28:50Z
2021-12-16T04:30:25Z,42.805,6.029,13.3003,4.60031,2470.427,2021-12-16T06:31:53Z
2021-12-16T04:33:28Z,42.805,6.029,13.3002,4.60032,2470.413,2021-12-16T06:34:56Z
2021-12-16T04:36:31Z,42.805,6.029,13.3002,4.60033,2470.413,2021-12-16T06:37:59Z
2021-12-16T04:39:34Z,42.805,6.029,13.3005,4.60033,2470.413,2021-12-16T06:41:02Z
2021-12-16T04:42:37Z,42.805,6.029,13.3004,4.60034,2470.45,2021-12-16T06:44:06Z
2021-12-16T04:45:40Z,42.805,6.029,13.3007,4.60033,2470.45,2021-12-16T06:47:09Z
2021-12-16T04:48:43Z,42.805,6.029,13.3006,4.60035,2470.437,2021-12-16T06:50:12Z
2021-12-16T04:51:46Z,42.805,6.029,13.3004,4.60035,2470.45,2021-12-16T06:53:15Z
2021-12-16T04:54:50Z,42.805,6.029,13.3002,4.60033,2470.413,2021-12-16T06:56:18Z
2021-12-16T04:57:53Z,42.805,6.029,13.3003,4.60034,2470.45,2021-12-16T06:59:21Z
2021-12-16T05:00:56Z,42.805,6.029,13.3000,4.60033,2470.427,2021-12-16T07:02:24Z
2021-12-16T05:03:59Z,42.805,6.029,13.3008,4.60032,2470.413,2021-12-16T07:05:27Z
2021-12-16T05:07:02Z,42.805,6.029,13.3002,4.60034,2470.423,2021-12-16T07:08:31Z
2021-12-16T05:10:05Z,42.805,6.029,13.3006,4.60033,2470.437,2021-12-16T07:11:34Z
2021-12-16T05:13:08Z,42.805,6.029,13.3006,4.60034,2470.45,2021-12-16T07:14:37Z
2021-12-16T05:16:11Z,42.805,6.029,13.3004,4.60033,2470.474,2021-12-16T07:17:40Z
2021-12-16T05:19:15Z,42.805,6.029,13.3007,4.60032,2470.437,2021-12-16T07:20:43Z
2021-12-16T05:22:18Z,42.805,6.029,13.3007,4.60032,2470.474,2021-12-16T07:23:46Z
2021-12-16T05:25:21Z,42.805,6.029,13.3000,4.60033,2470.45,2021-12-16T07:26:49Z
2021-12-16T05:28:24Z,42.805,6.029,13.3009,4.60033,2470.427,2021-12-16T07:29:52Z
2021-12-16T05:31:27Z,42.805,6.029,13.3006,4.60033,2470.413,2021-12-16T07:32:56Z
2021-12-16T05:34:30Z,42.805,6.029,13.3002,4.60033,2470.46,2021-12-16T07:35:59Z
2021-12-16T05:37:33Z,42.805,6.029,13.3002,4.60033,2470.437,2021-12-16T07:39:02Z
2021-12-16T05:40:36Z,42.805,6.029,13.3004,4.60032,2470.437,2021-12-16T07:42:05Z
2021-12-16T05:43:39Z,42.805,6.029,13.3007,4.60033,2470.45,2021-12-16T07:45:08Z
2021-12-16T05:46:43Z,42.805,6.029,13.3006,4.60036,2470.474,2021-12-16T07:48:11Z
2021-12-16T05:49:46Z,42.805,6.029,13.3006,4.60036,2470.427,2021-12-16T07:51:14Z
2021-12-16T05:52:49Z,42.805,6.029,13.3004,4.60034,2470.46,2021-12-16T07:54:17Z
2021-12-16T05:55:52Z,42.805,6.029,13.3009,4.60036,2470.45,2021-12-16T07:57:21Z
2021-12-16T05:58:55Z,42.805,6.029,13.3009,4.60033,2470.45,2021-12-16T08:00:24Z
2021-12-16T06:01:58Z,42.805,6.029,13.3004,4.60036,2470.437,2021-12-16T08:03:27Z
2021-12-16T06:05:01Z,42.805,6.029,13.3008,4.60039,2470.45,2021-12-16T08:06:30Z
2021-12-16T06:08:04Z,42.805,6.029,13.3009,4.60038,2470.474,2021-12-16T08:09:33Z
2021-12-16T06:11:08Z,42.805,6.029,13.3007,4.60035,2470.437,2021-12-16T08:12:36Z
2021-12-16T06:14:11Z,42.805,6.029,13.3006,4.60037,2470.437,2021-12-16T08:15:39Z
2021-12-16T06:17:14Z,42.805,6.029,13.3006,4.60035,2470.437,2021-12-16T08:18:42Z
2021-12-16T06:20:17Z,42.805,6.029,13.3006,4.60034,2470.437,2021-12-16T08:21:45Z
2021-12-16T06:23:20Z,42.805,6.029,13.3005,4.60033,2470.413,2021-12-16T08:24:49Z
2021-12-16T06:26:23Z,42.805,6.029,13.3004,4.60042,2470.474,2021-12-16T08:27:52Z
2021-12-16T06:29:26Z,42.805,6.029,13.3008,4.60039,2470.437,2021-12-16T08:30:55Z
2021-12-16T06:32:29Z,42.805,6.029,13.3009,4.60038,2470.437,2021-12-16T08:33:58Z
2021-12-16T06:35:33Z,42.805,6.029,13.3007,4.60038,2470.45,2021-12-16T08:37:01Z
2021-12-16T06:38:36Z,42.805,6.029,13.3006,4.60039,2470.437,2021-12-16T08:40:04Z
2021-12-16T06:41:39Z,42.805,6.029,13.3009,4.60039,2470.437,2021-12-16T08:43:07Z
2021-12-16T06:44:42Z,42.805,6.029,13.3008,4.60040,2470.45,2021-12-16T08:46:10Z
2021-12-16T06:47:45Z,42.805,6.029,13.3008,4.60039,2470.46,2021-12-16T08:49:14Z
2021-12-16T06:50:48Z,42.805,6.029,13.3009,4.60039,2470.474,2021-12-16T08:52:17Z
2021-12-16T06:53:51Z,42.805,6.029,13.3006,4.60040,2470.437,2021-12-16T08:55:20Z
2021-12-16T06:56:54Z,42.805,6.029,13.3009,4.60038,2470.437,2021-12-16T08:58:23Z
2021-12-16T06:59:58Z,42.805,6.029,13.3005,4.60039,2470.413,2021-12-16T09:01:26Z
2021-12-16T07:03:01Z,42.805,6.029,13.3006,4.60039,2470.413,2021-12-16T09:04:29Z
2021-12-16T07:06:04Z,42.805,6.029,13.3008,4.60034,2470.45,2021-12-16T09:07:32Z
2021-12-16T07:09:07Z,42.805,6.029,13.3007,4.60040,2470.427,2021-12-16T09:10:35Z
2021-12-16T07:12:10Z,42.805,6.029,13.3006,4.60036,2470.413,2021-12-16T09:13:39Z
2021-12-16T07:15:13Z,42.805,6.029,13.3006,4.60039,2470.437,2021-12-16T09:16:42Z
2021-12-16T07:18:16Z,42.805,6.029,13.3009,4.60050,2470.437,2021-12-16T09:19:45Z
2021-12-16T07:21:19Z,42.805,6.029,13.3010,4.60049,2470.437,2021-12-16T09:22:48Z
2021-12-16T07:24:23Z,42.805,6.029,13.3007,4.60044,2470.427,2021-12-16T09:25:51Z
2021-12-16T07:27:26Z,42.805,6.029,13.3009,4.60036,2470.404,2021-12-16T09:28:54Z
2021-12-16T07:30:29Z,42.805,6.029,13.3005,4.60036,2470.413,2021-12-16T09:31:57Z
2021-12-16T07:33:32Z,42.805,6.029,13.3005,4.60040,2470.413,2021-12-16T09:35:00Z
2021-12-16T07:36:35Z,42.805,6.029,13.3005,4.60036,2470.45,2021-12-16T09:38:04Z
2021-12-16T07:39:38Z,42.805,6.029,13.3006,4.60039,2470.437,2021-12-16T09:41:07Z
2021-12-16T07:42:41Z,42.805,6.029,13.3006,4.60063,2470.427,2021-12-16T09:44:10Z
2021-12-16T07:45:44Z,42.805,6.029,13.3009,4.60055,2470.427,2021-12-16T09:47:13Z
2021-12-16T07:48:48Z,42.805,6.029,13.3006,4.60039,2470.437,2021-12-16T09:50:16Z
2021-12-16T07:51:51Z,42.805,6.029,13.3007,4.60039,2470.427,2021-12-16T09:53:19Z
2021-12-16T07:54:54Z,42.805,6.029,13.3006,4.60044,2470.39,2021-12-16T09:56:22Z
2021-12-16T07:57:57Z,42.805,6.029,13.3007,4.60047,2470.45,2021-12-16T09:59:25Z
2021-12-16T08:01:00Z,42.805,6.029,13.3006,4.60039,2470.413,2021-12-16T10:02:29Z
2021-12-16T08:04:03Z,42.805,6.029,13.3005,4.60044,2470.427,2021-12-16T10:05:32Z
2021-12-16T08:07:06Z,42.805,6.029,13.3009,4.60044,2470.437,2021-12-16T10:08:35Z
2021-12-16T08:10:09Z,42.805,6.029,13.3009,4.60039,2470.404,2021-12-16T10:11:38Z
2021-12-16T08:13:13Z,42.805,6.029,13.3012,4.60057,2470.413,2021-12-16T10:14:41Z
2021-12-16T08:16:16Z,42.805,6.029,13.3007,4.60039,2470.404,2021-12-16T10:17:44Z
2021-12-16T08:19:19Z,42.805,6.029,13.3010,4.60037,2470.437,2021-12-16T10:20:47Z
2021-12-16T08:22:22Z,42.805,6.029,13.3004,4.60038,2470.413,2021-12-16T10:23:50Z
2021-12-16T08:25:25Z,42.805,6.029,13.3006,4.60041,2470.404,2021-12-16T10:26:54Z
2021-12-16T08:28:28Z,42.805,6.029,13.3010,4.60039,2470.413,2021-12-16T10:29:57Z
2021-12-16T08:31:31Z,42.805,6.029,13.3006,4.60036,2470.427,2021-12-16T10:33:00Z
2021-12-16T08:34:34Z,42.805,6.029,13.3005,4.60038,2470.427,2021-12-16T10:36:03Z
2021-12-16T08:37:38Z,42.805,6.029,13.3006,4.60040,2470.427,2021-12-16T10:39:06Z
2021-12-16T08:40:41Z,42.805,6.029,13.3006,4.60042,2470.427,2021-12-16T10:42:09Z
2021-12-16T08:43:44Z,42.805,6.029,13.3006,4.60049,2470.39,2021-12-16T10:45:12Z
2021-12-16T08:46:47Z,42.805,6.029,13.3010,4.60037,2470.413,2021-12-16T10:48:15Z
2021-12-16T08:49:50Z,42.805,6.029,13.3008,4.60036,2470.427,2021-12-16T10:51:19Z
2021-12-16T08:52:53Z,42.805,6.029,13.3012,4.60044,2470.366,2021-12-16T10:54:22Z
2021-12-16T08:55:56Z,42.805,6.029,13.3009,4.60040,2470.404,2021-12-16T10:57:25Z
2021-12-16T08:58:59Z,42.805,6.029,13.3006,4.60039,2470.404,2021-12-16T11:00:28Z
2021-12-16T09:02:03Z,42.805,6.029,13.3009,4.60046,2470.38,2021-12-16T11:03:31Z
2021-12-16T09:05:06Z,42.805,6.029,13.3006,4.60043,2470.366,2021-12-16T11:06:34Z
2021-12-16T09:08:09Z,42.805,6.029,13.3008,4.60037,2470.404,2021-12-16T11:09:37Z
2021-12-16T09:11:12Z,42.805,6.029,13.3010,4.60043,2470.366,2021-12-16T11:12:40Z
2021-12-16T09:14:15Z,42.805,6.029,13.3006,4.60038,2470.38,2021-12-16T11:15:44Z
2021-12-16T09:17:18Z,42.805,6.029,13.3004,4.60044,2470.366,2021-12-16T11:18:47Z
2021-12-16T09:20:21Z,42.805,6.029,13.3014,4.60046,2470.366,2021-12-16T11:21:50Z
2021-12-16T09:23:24Z,42.805,6.029,13.3006,4.60036,2470.39,2021-12-16T11:24:53Z
2021-12-16T09:26:28Z,42.805,6.029,13.3007,4.60034,2470.376,2021-12-16T11:27:56Z
2021-12-16T09:29:31Z,42.805,6.029,13.3006,4.60039,2470.39,2021-12-16T11:30:59Z
2021-12-16T09:32:34Z,42.805,6.029,13.3004,4.60036,2470.39,2021-12-16T11:34:02Z
2021-12-16T09:35:37Z,42.805,6.029,13.3022,4.60042,2470.39,2021-12-16T11:37:06Z
2021-12-16T09:38:40Z,42.805,6.029,13.3009,4.60057,2470.427,2021-12-16T11:40:09Z
2021-12-16T09:41:43Z,42.805,6.029,13.3008,4.60046,2470.404,2021-12-16T11:43:12Z
2021-12-16T09:44:46Z,42.805,6.029,13.3008,4.60037,2470.366,2021-12-16T11:46:15Z
2021-12-16T09:47:50Z,42.805,6.029,13.3005,4.60037,2470.366,2021-12-16T11:49:18Z
2021-12-16T09:50:53Z,42.805,6.029,13.3004,4.60042,2470.353,2021-12-16T11:52:21Z
2021-12-16T09:53:56Z,42.805,6.029,13.3006,4.60038,2470.353,2021-12-16T11:55:24Z
2021-12-16T09:56:59Z,42.805,6.029,13.3006,4.60039,2470.366,2021-12-16T11:58:27Z
2021-12-16T10:00:02Z,42.805,6.029,13.3000,4.60039,2470.343,2021-12-16T12:01:31Z
2021-12-16T10:03:05Z,42.805,6.029,13.3006,4.60040,2470.38,2021-12-16T12:04:34Z
2021-12-16T10:06:08Z,42.805,6.029,13.3007,4.60039,2470.366,2021-12-16T12:07:37Z
2021-12-16T10:09:11Z,42.805,6.029,13.3006,4.60039,2470.38,2021-12-16T12:10:40Z
2021-12-16T10:12:15Z,42.805,6.029,13.3004,4.60041,2470.357,2021-12-16T12:13:43Z
2021-12-16T10:15:18Z,42.805,6.029,13.3006,4.60041,2470.357,2021-12-16T12:16:46Z
2021-12-16T10:18:21Z,42.805,6.029,13.3007,4.60042,2470.357,2021-12-16T12:19:49Z
2021-12-16T10:21:24Z,42.805,6.029,13.3006,4.60036,2470.343,2021-12-16T12:22:52Z
2021-12-16T10:24:27Z,42.805,6.029,13.3018,4.60059,2470.38,2021-12-16T12:25:56Z
2021-12-16T10:27:30Z,42.805,6.029,13.3011,4.60057,2470.366,2021-12-16T12:28:59Z
2021-12-16T10:30:33Z,42.805,6.029,13.3001,4.60036,2470.343,2021-12-16T12:32:02Z
2021-12-16T10:33:36Z,42.805,6.029,13.3011,4.60037,2470.343,2021-12-16T12:35:05Z
2021-12-16T10:36:40Z,42.805,6.029,13.3024,4.60040,2470.404,2021-12-16T12:38:08Z
2021-12-16T10:39:43Z,42.805,6.029,13.3005,4.60036,2470.38,2021-12-16T12:41:11Z
2021-12-16T10:42:46Z,42.805,6.029,13.3009,4.60039,2470.343,2021-12-16T12:44:14Z
2021-12-16T10:45:49Z,42.805,6.029,13.3010,4.60043,2470.343,2021-12-16T12:47:17Z
2021-12-16T10:48:52Z,42.805,6.029,13.3004,4.60038,2470.32,2021-12-16T12:50:21Z
2021-12-16T10:51:55Z,42.805,6.029,13.3007,4.60042,2470.32,2021-12-16T12:53:24Z
2021-12-16T10:54:58Z,42.805,6.029,13.3011,4.60037,2470.357,2021-12-16T12:56:27Z
2021-12-16T10:58:01Z,42.805,6.029,13.3011,4.60039,2470.357,2021-12-16T12:59:30Z
2021-12-16T11:01:05Z,42.805,6.029,13.3006,4.60034,2470.343,2021-12-16T13:02:33Z
2021-12-16T11:04:08Z,42.805,6.029,13.3006,4.60032,2470.343,2021-12-16T13:05:36Z
2021-12-16T11:07:11Z,42.805,6.029,13.3007,4.60037,2470.357,2021-12-16T13:08:39Z
2021-12-16T11:10:14Z,42.805,6.029,13.3008,4.60039,2470.343,2021-12-16T13:11:43Z
2021-12-16T11:13:17Z,42.805,6.029,13.3005,4.60036,2470.297,2021-12-16T13:14:46Z
2021-12-16T11:16:20Z,42.805,6.029,13.3006,4.60033,2470.343,2021-12-16T13:17:49Z
2021-12-16T11:19:23Z,42.805,6.029,13.3010,4.60041,2470.38,2021-12-16T13:20:52Z
2021-12-16T11:22:27Z,42.805,6.029,13.3008,4.60033,2470.334,2021-12-16T13:23:55Z
2021-12-16T11:25:30Z,42.805,6.029,13.3003,4.60034,2470.357,2021-12-16T13:26:58Z
2021-12-16T11:28:33Z,42.805,6.029,13.3004,4.60032,2470.33,2021-12-16T13:30:01Z
2021-12-16T11:31:36Z,42.805,6.029,13.3003,4.60034,2470.357,2021-12-16T13:33:04Z
2021-12-16T11:34:39Z,42.805,6.029,13.3007,4.60031,2470.357,2021-12-16T13:36:08Z
2021-12-16T11:37:42Z,42.805,6.029,13.3002,4.60033,2470.343,2021-12-16T13:39:11Z
2021-12-16T11:40:45Z,42.805,6.029,13.3003,4.60031,2470.343,2021-12-16T13:42:14Z
2021-12-16T11:43:48Z,42.805,6.029,13.3003,4.60031,2470.334,2021-12-16T13:45:17Z
2021-12-16T11:46:52Z,42.805,6.029,13.3003,4.60032,2470.334,2021-12-16T13:48:20Z
2021-12-16T11:49:55Z,42.805,6.029,13.3005,4.60036,2470.343,2021-12-16T13:51:23Z
2021-12-16T11:52:58Z,42.805,6.029,13.3000,4.60032,2470.31,2021-12-16T13:54:26Z
2021-12-16T11:56:01Z,42.805,6.029,13.3005,4.60031,2470.334,2021-12-16T13:57:29Z
2021-12-16T11:59:04Z,42.805,6.029,13.3006,4.60029,2470.334,2021-12-16T14:00:33Z
2021-12-16T12:02:07Z,42.805,6.029,13.3004,4.60029,2470.334,2021-12-16T14:03:36Z
2021-12-16T12:05:10Z,42.805,6.029,13.3004,4.60030,2470.334,2021-12-16T14:06:39Z
2021-12-16T12:08:13Z,42.805,6.029,13.3004,4.60029,2470.334,2021-12-16T14:09:42Z
2021-12-16T12:11:17Z,42.805,6.029,13.3001,4.60029,2470.334,2021-12-16T14:12:45Z
2021-12-16T12:14:20Z,42.805,6.029,13.3000,4.60032,2470.32,2021-12-16T14:15:48Z
2021-12-16T12:17:23Z,42.805,6.029,13.3004,4.60029,2470.343,2021-12-16T14:18:51Z
2021-12-16T12:20:26Z,42.805,6.029,13.3004,4.60029,2470.334,2021-12-16T14:21:55Z
2021-12-16T12:23:29Z,42.805,6.029,13.3004,4.60031,2470.357,2021-12-16T14:24:58Z
2021-12-16T12:26:32Z,42.805,6.029,13.3005,4.60029,2470.32,2021-12-16T14:28:01Z
2021-12-16T12:29:35Z,42.805,6.029,13.3001,4.60029,2470.32,2021-12-16T14:31:04Z
2021-12-16T12:32:38Z,42.805,6.029,13.3002,4.60029,2470.297,2021-12-16T14:34:07Z
2021-12-16T12:35:42Z,42.805,6.029,13.3004,4.60029,2470.343,2021-12-16T14:37:10Z
2021-12-16T12:38:45Z,42.805,6.029,13.3006,4.60029,2470.357,2021-12-16T14:40:13Z
2021-12-16T12:41:48Z,42.805,6.029,13.3004,4.60029,2470.32,2021-12-16T14:43:16Z
2021-12-16T12:44:51Z,42.805,6.029,13.3003,4.60029,2470.32,2021-12-16T14:46:20Z
2021-12-16T12:47:54Z,42.805,6.029,13.3007,4.60029,2470.32,2021-12-16T14:49:23Z
2021-12-16T12:50:57Z,42.805,6.029,13.3002,4.60028,2470.343,2021-12-16T14:52:26Z
2021-12-16T12:54:00Z,42.805,6.029,13.3002,4.60029,2470.32,2021-12-16T14:55:29Z
2021-12-16T12:57:03Z,42.805,6.029,13.3002,4.60029,2470.297,2021-12-16T14:58:32Z
2021-12-16T13:00:07Z,42.805,6.029,13.3003,4.60029,2470.32,2021-12-16T15:01:35Z
2021-12-16T13:03:10Z,42.805,6.029,13.3003,4.60029,2470.32,2021-12-16T15:04:38Z
2021-12-16T13:06:13Z,42.805,6.029,13.3006,4.60029,2470.32,2021-12-16T15:07:41Z
2021-12-16T13:09:16Z,42.805,6.029,13.3004,4.60029,2470.334,2021-12-16T15:10:45Z
2021-12-16T13:12:19Z,42.805,6.029,13.3007,4.60028,2470.343,2021-12-16T15:13:48Z
2021-12-16T13:15:22Z,42.805,6.029,13.3003,4.60028,2470.334,2021-12-16T15:16:51Z
2021-12-16T13:18:25Z,42.805,6.029,13.2998,4.60029,2470.334,2021-12-16T15:19:54Z
2021-12-16T13:21:29Z,42.805,6.029,13.3001,4.60028,2470.31,2021-12-16T15:22:57Z
2021-12-16T13:24:32Z,42.805,6.029,13.3000,4.60028,2470.297,2021-12-16T15:26:00Z
2021-12-16T13:27:35Z,42.805,6.029,13.3000,4.60027,2470.343,2021-12-16T15:29:03Z
2021-12-16T13:30:38Z,42.805,6.029,13.3005,4.60029,2470.297,2021-12-16T15:32:06Z
2021-12-16T13:33:41Z,42.805,6.029,13.3004,4.60028,2470.334,2021-12-16T15:35:10Z
2021-12-16T13:36:44Z,42.805,6.029,13.3000,4.60028,2470.334,2021-12-16T15:38:13Z
2021-12-16T13:39:47Z,42.805,6.029,13.3003,4.60027,2470.334,2021-12-16T15:41:16Z
2021-12-16T13:42:50Z,42.805,6.029,13.3004,4.60029,2470.32,2021-12-16T15:44:19Z
2021-12-16T13:45:54Z,42.805,6.029,13.3000,4.60028,2470.343,2021-12-16T15:47:22Z
2021-12-16T13:48:57Z,42.805,6.029,13.3000,4.60029,2470.283,2021-12-16T15:50:25Z
2021-12-16T13:52:00Z,42.805,6.029,13.3002,4.60026,2470.32,2021-12-16T15:53:28Z
2021-12-16T13:55:03Z,42.805,6.029,13.3002,4.60026,2470.343,2021-12-16T15:56:32Z
2021-12-16T13:58:06Z,42.805,6.029,13.3001,4.60027,2470.334,2021-12-16T15:59:35Z
2021-12-16T14:01:09Z,42.805,6.029,13.3005,4.60026,2470.32,2021-12-16T16:02:38Z
2021-12-16T14:04:12Z,42.805,6.029,13.2998,4.60026,2470.334,2021-12-16T16:05:41Z
2021-12-16T14:07:15Z,42.805,6.029,13.3003,4.60026,2470.357,2021-12-16T16:08:44Z
2021-12-16T14:10:19Z,42.805,6.029,13.3002,4.60026,2470.334,2021-12-16T16:11:47Z
2021-12-16T14:13:22Z,42.805,6.029,13.3000,4.60027,2470.357,2021-12-16T16:14:50Z
2021-12-16T14:16:25Z,42.805,6.029,13.3000,4.60028,2470.306,2021-12-16T16:17:53Z
2021-12-16T14:19:28Z,42.805,6.029,13.2999,4.60026,2470.343,2021-12-16T16:20:57Z
2021-12-16T14:22:31Z,42.805,6.029,13.3004,4.60029,2470.343,2021-12-16T16:24:00Z
2021-12-16T14:25:34Z,42.805,6.029,13.3001,4.60028,2470.357,2021-12-16T16:27:03Z
2021-12-16T14:28:37Z,42.805,6.029,13.3002,4.60027,2470.366,2021-12-16T16:30:06Z
2021-12-16T14:31:40Z,42.805,6.029,13.3000,4.60027,2470.357,2021-12-16T16:33:09Z
2021-12-16T14:34:44Z,42.805,6.029,13.3000,4.60026,2470.366,2021-12-16T16:36:12Z
2021-12-16T14:37:47Z,42.805,6.029,13.2998,4.60026,2470.366,2021-12-16T16:39:15Z
2021-12-16T14:40:50Z,42.805,6.029,13.3000,4.60025,2470.366,2021-12-16T16:42:18Z
2021-12-16T14:43:53Z,42.805,6.029,13.2998,4.60024,2470.366,2021-12-16T16:45:22Z
2021-12-16T14:46:56Z,42.805,6.029,13.2999,4.60026,2470.38,2021-12-16T16:48:25Z
2021-12-16T14:49:59Z,42.805,6.029,13.3004,4.60026,2470.366,2021-12-16T16:51:28Z
2021-12-16T14:53:02Z,42.805,6.029,13.3002,4.60026,2470.38,2021-12-16T16:54:31Z
2021-12-16T14:56:06Z,42.805,6.029,13.2999,4.60026,2470.366,2021-12-16T16:57:34Z
2021-12-16T14:59:09Z,42.805,6.029,13.3000,4.60025,2470.366,2021-12-16T17:00:37Z
2021-12-16T15:02:12Z,42.805,6.029,13.3001,4.60026,2470.39,2021-12-16T17:03:40Z